San Diego Brown, CA

9:55 AM PDT on April 23, 2017 (GMT -0700)
Brown Municipal

Weather History for KSDM - October, 2013

Change the Weather History Date:

Friday, October 25, 2013

  Actual Average Record
Temperature  
Mean Temperature 62 °F 64 °F  
Max Temperature 69 °F 75 °F 87 °F (2007)
Min Temperature 55 °F 53 °F 47 °F (1956)
Degree Days  
Heating Degree Days 4 3  
Month to date heating degree days 36  
Since 1 July heating degree days 46  
Cooling Degree Days 0 1  
Month to date cooling degree days 56  
Year to date cooling degree days 601  
Growing Degree Days 12 (Base 50)    
Moisture  
Dew Point 55 °F    
Average Humidity 80    
Maximum Humidity 100    
Minimum Humidity 63    
Precipitation  
Precipitation 0.00 in 0.02 in 0.15 in (2010)
Month to date precipitation 0.36  
Year to date precipitation 9.17  
Sea Level Pressure  
Sea Level Pressure 30.06 in    
Wind  
Wind Speed 3 mph (NNW)    
Max Wind Speed 12 mph    
Max Gust Speed -    
Visibility 6 miles    
Events      
T = Trace of Precipitation, MM = Missing Value Source: NWS Daily Summary

Daily Weather History Graph

Daily Weather History Graph

Search for Another Location

Airport or City:

Trip Planner

Search our weather history database for the weather conditions in past years. The results will help you decide how hot, cold, wet, or windy it might be!

Date:

Astronomy

Oct. 25, 2013 Rise Set
Actual Time 6:59 AM PDT 6:03 PM PDT
Civil Twilight 6:34 AM PDT 6:28 PM PDT
Nautical Twilight 6:05 AM PDT 6:57 PM PDT
Astronomical Twilight 5:37 AM PDT 7:26 PM PDT
Moon 11:31 PM PDT (10/25) 12:38 PM PDT (10/25)
Length of Visible Light 11h 54m
Length of Day
11h 03m
Waning Gibbous, 61% of the Moon is Illuminated
Oct 25
Waning Gibbous
Oct 26
Last Quarter
Nov 3
New
Nov 9
First Quarter
Nov 17
Full

Hourly Weather History & Observations

Time (PDT) Temp. Dew Point Humidity Pressure Visibility Wind Dir Wind Speed Gust Speed Precip Events Conditions
12:53 AM 60.1 °F 55.0 °F 83% 30.04 in 8.0 mi Calm Calm - N/A   Overcast
1:53 AM 61.0 °F 55.0 °F 81% 30.06 in 10.0 mi Calm Calm - N/A   Overcast
2:53 AM 60.1 °F 54.0 °F 80% 30.06 in 10.0 mi Calm Calm - N/A   Overcast
3:21 AM 60.8 °F 53.6 °F 77% 30.06 in 9.0 mi North 3.5 mph - N/A   Overcast
3:53 AM 60.1 °F 54.0 °F 80% 30.05 in 9.0 mi North 5.8 mph - N/A   Overcast
4:53 AM 59.0 °F 54.0 °F 83% 30.06 in 8.0 mi NNE 3.5 mph - N/A   Overcast
5:53 AM 59.0 °F 54.0 °F 83% 30.07 in 9.0 mi Calm Calm - N/A   Overcast
6:53 AM 57.9 °F 53.1 °F 84% 30.08 in 9.0 mi ENE 4.6 mph - N/A   Overcast
7:53 AM 59.0 °F 53.1 °F 81% 30.09 in 5.0 mi NE 6.9 mph - N/A   Haze
8:53 AM 60.1 °F 54.0 °F 80% 30.10 in 9.0 mi NE 5.8 mph - N/A   Haze
9:51 AM 64.4 °F 55.4 °F 73% 30.11 in 6.0 mi Variable 3.5 mph - N/A   Haze
9:53 AM 63.0 °F 55.0 °F 75% 30.10 in 6.0 mi Calm Calm - N/A   Haze
10:18 AM 64.4 °F 55.4 °F 73% 30.10 in 6.0 mi North 4.6 mph - N/A   Haze
10:53 AM 66.9 °F 55.0 °F 66% 30.10 in 7.0 mi Variable 5.8 mph - N/A   Haze
11:53 AM 68.0 °F 55.0 °F 63% 30.08 in 6.0 mi WNW 6.9 mph - N/A   Haze
12:53 PM 68.0 °F 55.0 °F 63% 30.06 in 6.0 mi WNW 8.1 mph - N/A   Haze
1:53 PM 68.0 °F 55.9 °F 65% 30.03 in 7.0 mi WNW 11.5 mph - N/A   Haze
2:53 PM 68.0 °F 55.9 °F 65% 30.03 in 7.0 mi West 11.5 mph - N/A   Haze
3:53 PM 68.0 °F 55.9 °F 65% 30.02 in 7.0 mi West 6.9 mph - N/A   Haze
4:53 PM 66.9 °F 57.0 °F 70% 30.00 in 6.0 mi Variable 3.5 mph - N/A   Haze
5:53 PM 64.0 °F 55.9 °F 75% 30.00 in 7.0 mi West 5.8 mph - N/A   Clear
6:53 PM 61.0 °F 55.9 °F 83% 30.02 in 6.0 mi West 4.6 mph - N/A   Clear
7:53 PM 60.1 °F 57.0 °F 90% 30.03 in 5.0 mi Calm Calm - N/A   Clear
8:53 PM 59.0 °F 57.0 °F 93% 30.05 in 4.0 mi West 3.5 mph - N/A   Clear
9:53 PM 59.0 °F 57.0 °F 93% 30.07 in 4.0 mi Calm Calm - N/A   Clear
10:53 PM 55.0 °F 54.0 °F 96% 30.06 in 3.0 mi East 3.5 mph - N/A   Clear
11:20 PM 55.4 °F 55.4 °F 100% 30.06 in 2.5 mi Calm Calm - N/A   Clear
11:29 PM 57.2 °F 55.4 °F 94% 30.06 in 4.0 mi Calm Calm - N/A   Clear
11:53 PM 57.0 °F 55.9 °F 96% 30.06 in 3.0 mi Calm Calm - N/A   Clear